Total_Precipitation_Accumulation
1.75 2.03 2.43 2.85 3.05 3.22 3.31 3.57 3.74 3.42 2.88 2.41 1.86 1.56 1.42 1.23 1.09 0.97 0.82 0.81 0.73 0.74 0.76 0.65 0.69 0.60 0.60 0.61 0.62 0.74 0.78 0.75 0.75 1.02 1.24 1.08 0.86 0.84 0.76 0.75 0.84 0.91 0.94
1.34 1.46 1.67 2.00 2.08 2.30 2.61 2.96 3.17 2.98 2.42 2.13 1.84 1.63 1.48 1.32 1.22 1.11 0.92 0.76 0.71 0.69 0.62 0.71 0.59 0.58 0.64 0.63 0.65 0.73 0.75 0.66 0.66 0.90 1.14 1.08 1.14 1.09 0.62 0.69 0.79 0.85 0.99
1.00 1.00 1.09 1.26 1.56 2.03 2.17 2.20 2.43 2.59 2.29 2.12 1.99 1.81 1.65 1.42 1.31 1.18 0.98 0.75 0.67 0.65 0.63 0.60 0.58 0.67 0.54 0.66 0.76 0.75 0.74 0.73 0.65 0.65 0.83 0.94 0.96 0.91 0.81 0.69 0.68 0.76 0.94
0.68 0.82 0.83 0.89 1.09 1.41 1.68 1.92 2.14 2.27 2.14 1.99 1.77 1.56 1.33 1.14 1.00 0.97 0.96 0.90 0.79 0.68 0.64 0.56 0.61 0.69 0.60 0.78 0.61 0.63 0.73 0.74 0.64 0.59 0.51 0.53 0.66 0.78 0.88 0.80 0.68 0.70 0.79
0.37 0.54 0.65 0.74 0.77 0.97 1.34 1.74 2.05 2.24 2.06 1.75 1.59 1.54 1.39 1.25 1.14 1.03 1.12 1.01 0.93 0.81 0.71 0.66 0.67 0.62 0.58 0.66 0.68 0.81 0.73 0.71 0.66 0.60 0.54 0.56 0.53 0.50 0.61 0.77 0.79 0.78 0.61
0.25 0.34 0.41 0.50 0.64 0.77 1.00 1.25 1.55 1.80 1.79 1.61 1.51 1.47 1.44 1.38 1.25 1.04 1.00 0.94 0.90 0.87 0.82 0.83 0.80 0.71 0.62 0.63 0.64 0.71 0.74 0.79 0.85 0.72 0.60 0.62 0.59 0.51 0.54 0.52 0.54 0.64 0.53
0.21 0.30 0.37 0.34 0.45 0.55 0.65 0.78 1.07 1.28 1.38 1.42 1.41 1.34 1.42 1.43 1.30 1.14 1.01 0.95 0.82 0.77 0.77 0.78 0.84 0.79 0.76 0.74 0.72 0.70 0.70 0.77 0.83 0.75 0.63 0.56 0.48 0.51 0.54 0.56 0.47 0.46 0.42
0.16 0.25 0.33 0.31 0.32 0.38 0.50 0.63 0.83 0.99 1.08 1.13 1.22 1.22 1.21 1.16 1.19 1.24 1.11 0.98 0.90 0.83 0.79 0.79 0.75 0.74 0.77 0.76 0.87 0.72 0.67 0.72 0.71 0.66 0.74 0.68 0.46 0.45 0.52 0.57 0.60 0.62 0.60
0.22 0.22 0.28 0.28 0.24 0.29 0.37 0.44 0.60 0.75 0.84 0.94 1.06 1.07 1.08 1.02 1.04 1.05 1.02 0.96 0.97 0.94 0.88 0.79 0.76 0.78 0.80 0.81 0.86 0.80 0.79 0.79 0.69 0.65 0.73 0.68 0.54 0.46 0.40 0.49 0.61 0.78 0.80
0.29 0.28 0.26 0.32 0.28 0.27 0.33 0.37 0.47 0.59 0.69 0.80 0.88 0.87 1.00 1.00 1.10 1.08 0.99 0.91 0.85 0.84 0.88 0.85 0.78 0.79 0.83 0.88 0.90 0.90 0.95 0.99 0.90 0.77 0.77 0.74 0.65 0.64 0.51 0.49 0.61 0.75 0.85
0.28 0.31 0.30 0.28 0.25 0.24 0.26 0.28 0.40 0.51 0.60 0.72 0.78 0.85 0.89 0.93 1.00 1.05 1.03 0.97 0.91 0.86 0.86 0.86 0.82 0.78 0.81 0.86 0.89 0.88 0.99 1.12 1.17 1.03 0.92 0.87 0.82 0.83 0.72 0.70 0.74 0.77 0.90
0.18 0.22 0.24 0.21 0.19 0.21 0.22 0.23 0.29 0.36 0.45 0.63 0.77 0.81 0.89 0.94 0.94 0.96 1.10 1.10 1.05 1.01 1.00 0.98 0.97 0.90 0.84 0.87 0.85 0.79 0.85 1.01 1.21 1.36 1.38 1.21 1.07 1.03 0.90 0.87 0.86 0.85 0.92
0.19 0.25 0.28 0.26 0.21 0.21 0.23 0.26 0.30 0.36 0.41 0.54 0.67 0.77 0.86 0.94 0.99 1.04 1.15 1.24 1.23 1.21 1.22 1.21 1.15 1.08 1.05 1.02 0.97 0.91 0.89 0.93 1.02 1.20 1.38 1.38 1.37 1.21 1.11 1.03 0.96 0.91 0.87
0.20 0.24 0.35 0.35 0.26 0.21 0.25 0.28 0.34 0.40 0.50 0.66 0.78 0.84 0.99 1.11 1.16 1.13 1.21 1.27 1.33 1.37 1.39 1.38 1.31 1.24 1.19 1.16 1.13 1.10 1.08 1.08 1.06 1.06 1.10 1.20 1.36 1.31 1.23 1.16 1.10 1.06 1.04
0.25 0.31 0.39 0.43 0.39 0.35 0.33 0.37 0.47 0.57 0.73 0.93 0.99 1.00 1.07 1.15 1.23 1.33 1.39 1.48 1.54 1.56 1.64 1.58 1.49 1.42 1.38 1.27 1.33 1.43 1.41 1.40 1.25 1.12 1.04 1.01 1.15 1.25 1.25 1.13 1.08 1.12 1.14
0.32 0.37 0.51 0.55 0.55 0.52 0.52 0.61 0.72 0.87 1.08 1.32 1.39 1.45 1.49 1.51 1.55 1.59 1.63 1.73 1.77 1.76 1.70 1.64 1.63 1.58 1.42 1.51 1.52 1.43 1.42 1.53 1.50 1.36 1.25 1.10 1.03 1.04 1.10 1.16 1.18 1.17 1.15
0.49 0.49 0.61 0.69 0.75 0.73 0.71 0.80 0.90 1.08 1.28 1.38 1.39 1.43 1.51 1.57 1.59 1.62 1.67 1.68 1.71 1.69 1.64 1.65 1.68 1.64 1.63 1.53 1.35 1.24 1.21 1.26 1.32 1.34 1.27 1.06 0.96 1.01 0.99 1.12 1.16 1.11 1.05
0.64 0.64 0.69 0.73 0.74 0.78 0.82 0.90 0.97 1.03 1.22 1.29 1.27 1.25 1.28 1.30 1.34 1.44 1.50 1.51 1.52 1.50 1.48 1.47 1.39 1.34 1.30 1.26 1.10 1.05 1.04 1.05 1.03 1.11 1.19 1.12 1.02 0.97 0.95 0.90 0.84 0.82 0.83
0.60 0.65 0.72 0.71 0.71 0.76 0.82 0.81 0.86 0.92 1.03 1.07 1.09 1.05 1.09 1.14 1.20 1.27 1.36 1.43 1.42 1.30 1.20 1.14 1.12 1.12 1.15 1.23 1.05 0.97 0.96 0.99 0.92 0.92 0.94 0.95 0.86 0.84 0.76 0.73 0.66 0.63 0.63
0.51 0.61 0.73 0.73 0.70 0.71 0.73 0.73 0.77 0.83 0.93 1.03 1.09 1.07 1.06 1.12 1.16 1.23 1.27 1.28 1.27 1.23 1.20 1.13 1.09 1.08 1.09 1.17 1.01 0.93 0.93 0.96 0.92 0.91 0.95 1.02 0.88 0.74 0.59 0.59 0.62 0.56 0.52
0.52 0.57 0.67 0.78 0.76 0.76 0.79 0.81 0.80 0.81 0.87 0.96 1.01 1.02 1.00 1.01 1.05 1.11 1.11 1.17 1.20 1.18 1.12 1.05 1.03 1.06 1.06 1.04 0.89 0.79 0.76 0.80 0.81 0.77 0.78 0.88 0.84 0.67 0.52 0.52 0.55 0.50 0.48
0.39 0.52 0.62 0.70 0.75 0.82 0.88 0.88 0.82 0.82 0.85 0.95 0.98 0.95 0.95 0.93 0.92 0.92 0.92 0.97 1.00 0.99 0.97 0.97 0.97 1.02 1.01 0.88 0.75 0.64 0.60 0.63 0.66 0.75 0.76 0.85 0.86 0.68 0.57 0.50 0.47 0.40 0.35
0.34 0.40 0.49 0.60 0.63 0.73 0.83 0.90 0.90 0.89 0.86 0.90 0.94 0.93 0.93 0.95 0.97 0.98 0.98 0.98 0.98 0.97 0.95 0.90 0.83 0.82 0.85 0.84 0.68 0.53 0.47 0.51 0.58 0.79 0.99 1.01 0.94 0.79 0.65 0.58 0.55 0.44 0.37
0.42 0.46 0.52 0.53 0.54 0.59 0.68 0.78 0.85 0.88 0.91 0.89 0.83 0.80 0.81 0.82 0.87 0.96 1.01 1.03 1.02 0.98 0.92 0.86 0.82 0.82 0.83 0.82 0.77 0.66 0.57 0.58 0.64 0.82 1.01 1.11 1.13 1.04 0.91 0.82 0.73 0.57 0.52
0.50 0.52 0.54 0.53 0.53 0.56 0.60 0.68 0.76 0.80 0.82 0.85 0.83 0.80 0.77 0.77 0.81 0.86 0.90 0.88 0.89 0.88 0.84 0.79 0.78 0.80 0.82 0.81 0.75 0.67 0.61 0.59 0.63 0.75 1.00 1.19 1.32 1.34 1.29 1.15 1.03 0.89 0.78
0.58 0.56 0.57 0.57 0.59 0.62 0.65 0.64 0.70 0.81 0.88 0.88 0.82 0.79 0.75 0.74 0.74 0.75 0.81 0.88 0.80 0.79 0.74 0.71 0.65 0.62 0.65 0.66 0.57 0.52 0.51 0.51 0.56 0.68 0.92 1.15 1.34 1.41 1.50 1.48 1.36 1.17 0.99